Location: Strawberry
(45.6646°N, 111.9596°W)
Time: 01:11:41
(UTC+00:00)

Vanguard 1 Rocket - Pass Details

Date: 02 October 2022
Orbit: 650 x 4225 km, 34.3° (Epoch: 05 December)

Event Time Altitude Azimuth Distance (km) Brightness Sun altitude
Rises 03:49:25 0° 240° (WSW) 7,975 12.6 -28.3°
Reaches altitude 10° 03:55:48 10° 235° (SW) 6,521 12.0 -29.3°
Maximum altitude 04:12:51 44° 172° (S) 2,879 9.5 -31.9°
Enters shadow 04:13:43 44° 163° (SSE) 2,808 9.4 -32.0°
